Regional Weather Roundup
Issued by NWS

Home | Current Version | Previous Version | Text Only | Print | Product List | Glossary Off
Versions: 1 2 3 4 5 6 7 8 9 10 11 12 13 14 15 16 17 18 19 20 21 22 23 24 25 26 27 28 29 30 31 32 33 34 35 36 37 38 39 40 41 42 43 44 45 46 47 48 49 50

335
ASUS45 KCYS 272110
RWRWY

WYOMING REGIONAL WEATHER ROUNDUP
NATIONAL WEATHER SERVICE CHEYENNE WY
300 PM MDT MON MAR 27 2017

NOTE:  "FAIR" INDICATES FEW OR NO CLOUDS BELOW 12,000 FEET
WITH NO SIGNIFICANT WEATHER AND/OR OBSTRUCTIONS TO VISIBILITY.

WYZ001-272200-
YELLOWSTONE NATIONAL PARK

CITY           SKY/WX    TMP DP  RH WIND       PRES   REMARKS
LK YELLOWSTONE   N/A     36  24  62 SE6       29.90R WCI  31
W YELLOWSTONE  NOT AVBL

$$
WYZ002>013-054>058-071-098>099-272200-
NORTHERN WYOMING

CITY           SKY/WX    TMP DP  RH WIND       PRES   REMARKS
JACKSON        MOSUNNY   43  30  61 SW10      29.87S
CODY           PTSUNNY   54  24  31 SE10      29.81F
GREYBULL       FAIR      60  22  23 N3        29.78F
WORLAND        FAIR      59  26  28 E7        29.78F
SHERIDAN       PTSUNNY   60  31  33 N9        29.81F
BUFFALO        CLOUDY    55  29  36 S8        29.83F
GILLETTE       CLOUDY    59  25  27 VRB3      29.80F
HULETT         FAIR      55  32  41 SE9       29.84S
NEWCASTLE      FAIR      59  27  29 E7G17     29.81F

$$
WYZ014>020-022>026-101>103-272200-
CENTRAL WYOMING

CITY           SKY/WX    TMP DP  RH WIND       PRES   REMARKS
BIG PINEY      PTSUNNY   44  25  47 CALM      29.86F
PINEDALE       FAIR      43  23  45 NW3       29.87F
DUBOIS         MOCLDY    45  19  36 N15G23    29.82F
LANDER         FAIR      54  22  28 VRB5      29.79F
RIVERTON       FAIR      54  24  31 E8        29.81F
CASPER         FAIR      55  20  25 SE5       29.81F
DOUGLAS        FAIR      59  19  21 NW14      29.81F

$$
WYZ021-027>030-104>119-272200-
SOUTHERN WYOMING

CITY           SKY/WX    TMP DP  RH WIND       PRES   REMARKS
EVANSTON       SNOW      34  32  92 N14       29.84S VSB 1/2 WCI  25
KEMMERER         N/A     41  30  65 E10       29.85F
ROCK SPRINGS   CLOUDY    46  29  51 NE9       29.84S
DIXON            N/A     54  25  33 S6        29.85F
RAWLINS        CLOUDY    51  19  28 W6        29.83F
SARATOGA       CLOUDY    50  23  34 W6        29.85F
LARAMIE        PTSUNNY   50  24  36 S12       29.85F
CHEYENNE       CLOUDY    56  26  31 S14       29.85F
TORRINGTON     FAIR      66  19  16 W14       29.79F
PINE BLUFFS    MOCLDY    59  27  29 S14G21    29.84F

$$




USA.gov is the U.S. government's official web portal to all federal, state and local government web resources and services.